Location: Invercargill
(46.4000°S, 168.3500°E)
Time: 14:59:49
(UTC+13:00)

Cosmos 2333 Rocket - Pass Details

Date: 24 January 2019
Orbit: 840 x 862 km, 70.8° (Epoch: 12 October)

Event Time Altitude Azimuth Distance (km) Brightness Sun altitude
Exits shadow 23:33:14 26° 48° (NE) 1,655 3.1 -16.6°
Maximum altitude 23:34:50 30° 76° (ENE) 1,524 3.1 -16.8°
Drops below altitude 10° 23:39:47 10° 135° (SE) 2,528 4.8 -17.3°
Sets 23:42:32 0° 145° (SE) 3,469 5.7 -17.5°
